AMC-11

Last updated on Tue Sep 16 2025 00:02:45 GMT+0000 (Coordinated Universal Time)

1 28252U 04017A 25258.56256252 -.00000066 00000+0 00000+0 0 9997 2 28252 0.0406 326.7325 0002953 221.5372 257.9193 1.00271901 78114
UTC large
Height (km)
Speed (km/s)
/
Latitude / Longitude
Inclination (degrees)
Orbital Period (minutes)
Azimuth
Elevation
Range (km)
Doppler Factor

Next 0 passes for location: London (51.5072 / 0.1276)

Sorry there are no passes over London.